Погода Актобе

Погода Актобе : погода сейчас, прогноз погоды и архив. Всё, что Вы хотите узнать о погоде Актобе!

Хотите узнать прогноз погоды Актобе? Тогда Вам сюда: Погода Актобе

Поиск расширенной информации на нашем сайте:

Другие новости

Новости СМИ2

Главная страница сайта

Новости сайта

03.07.2017

Напоминаем, что на нашем специализированном сайте Метеоцентр.Азия вы можете получить высокодетализированные автоматические прогнозы погоды по пунктам России, СНГ и мира в авиационном формате (включающие направление и скорость ветра, видимость, явления погоды, количество и форму облачности, нижнюю и верхнюю границу облачности).


Погода Актобе - сегодня

Время (UTC), дата Ветер
(°,м/с) 
Видим.   Явления Облачность Т
(°С)
Тd
(°С)
f(%) Тe
(°С)
Pmin
(гПа)
dP
(гПа)
Po
(мм)
O2
(г/м3)
Тmin Tmax R s Состояние
почвы
00 16.04.18 290 (З) н/о    ясно 
+1.9 -1.5 78 +3  1019  -0.7  744  298           
06 16.04.18 340 (С) 20000 м    3/3 1000 м 
[Cu hum]
+10.1 -2.5 41 +10  1018.8  0.5  744  289  -0.5         
09 16.04.18 340 (С) 20000 м    8/6 1000 м 
[Cu hum]
+12.4 -2.8 35 +12  1017.7  -0.8  744  287           
12 16.04.18 330 (СЗ) 20000 м    4/0 средняя 
[Ac trans]
+14.5 -5.5 25 +14  1016.5  -1  743  285           
15 16.04.18 350 (С) 20000 м    1/0 средняя 
[Ac trans]
+12.5 -4.6 30 +12  1016.2  -0.5  743  287    +15       
18 16.04.18 280 (З) н/о    ясно 
+7.6 -3.1 47 +8  1017.5  0.8  743  292    +15       
00 17.04.18 тихо ()   н/о    ясно 
+1 -3.2 73 +1  1018.5  0.2  743  299           
06 17.04.18 310 (СЗ) 20000 м    ясно 
+12.5 -1.1 39 +13  1018  0.4  744  287  -0.6         
09 17.04.18 330 (СЗ) 20000 м    5/5 1000 м 
[Cu hum]
+14.8 -3.1 29 +15  1017.1  -0.7  743  284           
12 17.04.18 330 (СЗ) 20000 м    4/4 1000 м 
[Cu hum]
+16.4 -3.7 25 +17  1016.4  -0.6  743  283           
15 17.04.18 330 (СЗ) 20000 м    4/0 верхняя 
[Ci fib]
+14.6 -2.7 30 +15  1016.3  -0.2  743  284    +17       
18 17.04.18 310 (СЗ) н/о    3/0 верхняя 
[Ci fib]
+8.1 -0.6 54 +8  1017.8  0.9  743  291    +17       
21 17.04.18 310 (СЗ) н/о    3/0 верхняя 
[Ci fib]
+7.2 -0.6 58 +7  1018.1  0.2  744  292           
00 18.04.18 310 (СЗ) н/о    8/0 средняя 
[Ac trans]
+6 +0.4 67 +7  1018.7  0.4  744  293           
06 18.04.18 280 (З) 10 км    8/3 1000 м средняя, верхняя 
[Sc|Ac und|Ci fib]
+11.9 +0 44 +13  1019.3  0.4  745  288  +3.6         
09 18.04.18 280 (З) 20000 м    6/0 средняя 
[Ac cast]
+16.8 -1.7 28 +17  1017.8  -1.1  744  283           
12 18.04.18 340 (С) 10 км    8/3 600 м кучево-дожд., средняя 
[Cb cap|Ac cast]
+17.4 -1.3 28 +18  1016.8  -0.9  743  282           
15 18.04.18 290 (З) 20000 м    9/3 600 м кучево-дожд., средняя 
[Cb calv|Ac As]
+15.5 +0.8 37 +16  1016.9  -0.1  743  283    +17.6       
18 18.04.18 040 (СВ) н/о    10/6 600 м кучево-дожд., средняя 
[Cb calv|Ac As]
+13 +2 47 +14  1017.7  0.7  744  286    +17.6       
21 18.04.18 280 (З) н/о    10/0 средняя 
[Ac As]
+9.9 +3.5 64 +11  1016.3  -1.7  743  288           
00 19.04.18 тихо ()   н/о    10/0 средняя 
[Ac As]
+8.8 +3.5 69 +9  1015.5  -0.9  742  289           
03 19.04.18 280 (З) 10 км  слаб. ливневой дождь  10/10 600 м кучево-дожд. 
[Cb cap]
+9.6 +6.4 80 +9  1015  -0.4  742  288      0.3     
09 19.04.18 280 (З) 10 км  {ливн. осадки}  10/8 1000 м кучево-дожд., средняя 
[Cb calv|Ac As]
+10.3 +7 80 +10  1014.1  -0.2  741  286           
21 19.04.18 180 (Ю) н/о    10/3 1000 м кучево-дожд., средняя 
[Cb calv|Ac und]
+7.1 +4.8 85 +8  1009.8  -1.8  738  289           
00 20.04.18 180 (Ю) н/о    10/4 1000 м кучево-дожд., средняя 
[Cb calv|Ac und]
+6.2 +2.6 78 +7  1008.3  -1.5  736  290           
Время (UTC), дата Ветер
(°,м/с) 
Видим.   Явления Облачность Т
(°С)
Тd
(°С)
f(%) Тe
(°С)
Pmin
(гПа)
dP
(гПа)
Po
(мм)
O2
(г/м3)
Тmin Tmax R s Состояние
почвы

Для получения пояснительной информации подведите курсор к названию столбца.

ПОГОДА Актобе - архив

Всё, что Вы хотите узнать о погоде Актобе - удобно и подробно!

Выберите нужную дату (начиная с 1 января 2015* года) и нажмите кнопку "Найти".
Будут отображены архивные сводки погоды по пункту Актобе, начиная с указанной даты.


Отображать данные в формате CSV (для использования в таблицах Excel)


Внимание! Наш архив погоды предназначен исключительно для личного некоммерческого использования в познавательных целях. Если Вам необходимы официальные справки о состоянии погоды (для производственных, юридических, коммерческих и т.п. целей), обращайтесь в органы Росгидромета.

*Примечание: данная дата относится к архиву по метеостанциям СССР (Россия, СНГ, Балтия).
Архив по метеостанциям Зарубежной Европы и Азии (кроме Китая) хранится 10 дней, по другим регионам земного шара (Китай, Африка, Америка, Австралия, Океания) - 1 день.

Актобе - район местоположения метеостанции


Название, широта, долгота, высота метеостанции:
Актобе (город) 50.3°ш. 57.2°д. 219 м над ур. моря [Казахстан]

Дополнительная информация

В oтличие oт бoльшинства пoгoдных сайтoв мы публикуем пoдрoбную метеoинфoрмацию в детальнoм прoфессиoнальнoм фoрмате.

Характеристики температуры и влажнoсти вoздуха измеряются на высoте 2 м в тени вдали oт зданий и деревьев.
Скoрoсть ветра измеряется на высoте 10 м (на урoвне рoста челoвека скoрoсть ветра ниже в 1.5-2 раза). Если метеoстанция нахoдится в гoрoде или в лесу, тo скoрoсть ветра занижена на 2-4 м/с пo сравнению с oткрытым местoм. Скoрoсть ветра над акватoриями крупных рек и oзёр, а также на вершинах хoлмoв на 2-5 м/с выше, чем в oбычных услoвиях.
Атмoсфернoе давление в разных тoчках местнoсти мoжет значительнo oтличаться oт давления на метеoстанции, в зависимoсти oт услoвий рельефа (при пoдъёме на 10 м давление пoнижается примернo на 1 мм рт.ст.).